Regional Weather Roundup
Issued by NWS Boston, MA

Home | Current Version | Previous Version | Text Only | Print | Product List | Glossary On
Versions: 1 2 3 4 5 6 7 8 9 10 11 12 13 14 15 16 17 18 19 20 21 22 23 24 25 26 27 28 29 30 31 32 33 34 35 36 37 38 39 40 41 42 43 44 45 46 47 48 49 50
000
ASUS41 KBOX 130610
RWRBOX

REGIONAL WEATHER ROUNDUP
NATIONAL WEATHER SERVICE TAUNTON MA
100 AM EST WED DEC 13 2017

NOTE:  "FAIR" INDICATES FEW OR NO CLOUDS BELOW 12,000 FEET WITH NO
SIGNIFICANT WEATHER AND/OR OBSTRUCTIONS TO VISIBILITY.

MAZALL-130700-
EASTERN MASSACHUSETTS

CITY           SKY/WX    TMP DP  RH WIND       PRES   REMARKS
BOSTON         CLOUDY    35  29  78 W15       29.23F WCI  25
6HR MIN TEMP:  35; 6HR MAX TEMP:  43; 6HR PCP:  0.02;

BEVERLY        CLOUDY    33  28  81 W12       29.21F WCI  24
LAWRENCE       CLOUDY    34  26  72 W10G20    29.24F WCI  26
BEDFORD        CLOUDY    32  27  81 W8        29.22F WCI  25
BLUE HILL        N/A     30  27  88 W16G24    29.20F WCI  19
NORWOOD        MOCLDY    35  29  78 W9        29.24F WCI  28
MARSHFIELD     MOCLDY    36  34  93 VRB7G14   29.22F WCI  30
PLYMOUTH       CLOUDY    36  32  85 W12G18    29.24F WCI  28
TAUNTON        CLOUDY    34  28  79 W10       29.25F WCI  26
NEW BEDFORD    MOCLDY    34  32  92 W6        29.25F WCI  29
$$

MAZALL-130700-
CAPE COD AND THE ISLANDS

CITY           SKY/WX    TMP DP  RH WIND       PRES   REMARKS
FALMOUTH       CLOUDY    36  32  87 W12       29.25F WCI  27
HYANNIS        CLOUDY    38  33  82 W8        29.22F
CHATHAM        CLOUDY    39  36  89 W9G18     29.23F
PROVINCETOWN   CLOUDY    38  34  85 NW22G28   29.20F WCI  27
NANTUCKET      CLOUDY    39  37  92 W14       29.25S WCI  31
MARTHAS VNYRD  MOCLDY   N/A N/A N/A NW8       29.25S
$$

MAZALL-130700-
CENTRAL AND WESTERN MASSACHUSETTS

CITY           SKY/WX    TMP DP  RH WIND       PRES   REMARKS
WORCESTER      CLOUDY    25  19  78 W24G35    29.22R WCI   9
6HR MIN TEMP:  25; 6HR MAX TEMP:  34;

FITCHBURG      CLOUDY    31  25  78 W12       29.26R WCI  22
ORANGE         CLOUDY    23  19  85 W13       29.30F WCI  11
SPRINGFIELD    CLOUDY    24  13  61 W17       29.34S WCI  11
WESTFIELD      MOCLDY    24  10  55 NW20G29   29.35F WCI  10
NORTH ADAMS    CLOUDY    19   8  62 W9        29.38F WCI   8
PITTSFIELD     CLOUDY    17   3  54 W18G30    29.32F WCI   1
$$

RIZALL-130700-
RHODE ISLAND

CITY           SKY/WX    TMP DP  RH WIND       PRES   REMARKS
PROVIDENCE     CLOUDY    32  26  78 W18G29    29.29S WCI  20
6HR MIN TEMP:  32; 6HR MAX TEMP:  43;

NEWPORT        CLOUDY    33  26  75 W13G23    29.28R WCI  24
BLOCK ISLAND   CLOUDY    33  23  66 NW13G23   29.34R WCI  24
SMITHFIELD     CLOUDY    30  25  81 W14G23    29.26F WCI  19
WESTERLY       CLOUDY    32  20  61 NW8G25    29.35R WCI  25
$$

CTZALL-130700-
CONNECTICUT

CITY           SKY/WX    TMP DP  RH WIND       PRES   REMARKS
BRADLEY INTL   MOCLDY    26  16  65 NW12      29.37F WCI  16
6HR MIN TEMP:  26; 6HR MAX TEMP:  35; 6HR PCP: TRACE;

HARTFORD       CLOUDY    29  18  63 W15       29.38F WCI  18
BRIDGEPORT     CLOUDY    31  17  56 NW16G28   29.41S WCI  20
DANBURY        CLOUDY    26  11  52 W15G22    29.42F WCI  14
GROTON         CLOUDY    31  19  61 NW16G23   29.35S WCI  20
NEW HAVEN      CLOUDY    32  19  58 NW15      29.39F WCI  22
CHESTER        MOCLDY    28  16  59 NW12G26   29.34S WCI  18
MERIDEN        CLOUDY    27  12  53 NW14G24   29.39F WCI  16
WILLIMANTIC    MOCLDY    29  17  61 NW14G20   29.35S WCI  18
OXFORD         FLURRIES  25  14  63 NW10G21   29.38F WCI  15
$$

MEZ002-015-021-024-NHZ003-005-008-011-012-014-VTZ005-008-130700-
NORTHERN NEW ENGLAND

CITY           SKY/WX    TMP DP  RH WIND       PRES   REMARKS
PORTLAND ME    CLOUDY    31  30  96 VRB6      29.16S WCI  25
6HR MIN TEMP:  29; 6HR MAX TEMP:  32; 6HR PCP:  0.05;

BANGOR ME      CLOUDY    33  32  96 W3        29.13F FOG
CONCORD NH     CLOUDY    31  26  82 W14       29.23S WCI  21
MANCHESTER NH  CLOUDY    31  25  78 W8        29.22F WCI  23
NASHUA NH      CLOUDY    30  28  92 NW7       29.22F WCI  23
PORTSMOUTH NH  CLOUDY    31  28  90 W3        29.19F
JAFFREY NH     CLOUDY    27  24  89 W9        29.22F WCI  18
KEENE NH       FLURRIES  26  23  88 W10       29.28F WCI  16
BURLINGTON VT  FLURRIES  22  18  85 NE9       29.36S WCI  12
MT. WASHINGTON MOCLDY    18  16  93 W13         N/A  WCI   4
$$

NYZ052-076-130700-
EASTERN NEW YORK

CITY           SKY/WX    TMP DP  RH WIND       PRES   REMARKS
ALBANY         CLOUDY    20   4  50 NW20G26   29.45S WCI   4
6HR MIN TEMP:  20; 6HR MAX TEMP:  30;

NEW YORK CITY  MOCLDY    30  14  51 NW21      29.48R WCI  17
6HR MIN TEMP:  30; 6HR MAX TEMP:  42; 6HR PCP: TRACE;

$$

ANZALL-130700-
MARINE OBSERVATIONS

STATION/POSITION TIME  TEMP    WIND        PRES    VSBY  WAVE
                       AIR SEA DIR/SP/G                  HT/PER
                 (UTC) (F)     (DEG/KT/KT) (MB)    (MI)  (FT/S)
BOSTON BUOY      0450   38 48  290/ 17/ 21  989.0          3/ 6
BUZZARDS BAY     0500   38     290/ 19/ 20  991.9F
NANTUCKET SOUND  0450   40 45  290/ 19/ 23  990.1          2/ 4
MASS BAY-STELLWA 0504   35 47  300/ 17/ 21  989.3F         3/ 6
ISLE OF SHOALS   0500   33     290/ 13/ 17  988.6F
S OF BLOCK IS    0543      53                N/A           6/ 7
$$

......................KEY.........................
  SKY/WX - SKY CONDITION/PRESENT WEATHER
  TMP    - TEMPERATURE IN FAHRENHEIT
  DWPT   - DEWPOINT IN FAHRENHEIT
  RH     - RELATIVE HUMIDITY IN PERCENT
  WIND   - DIRECTION AND SPEED IN MPH
  PRES   - MEAN SEA LEVEL PRESSURE IN INCHES OF HG
  WCI    - WIND CHILL INDEX
  VSB    - VISIBILITY IN MILES
  HX     - HEAT INDEX
  TC     - TEMPERATURE IN CELSIUS
  VRB    - VARIABLE WIND DIRECTION
  N/A    - NOT AVAILABLE



USA.gov is the U.S. government's official web portal to all federal, state and local government web resources and services.